#timestamp,LO_Frequency,Hit,Temp,Hum 
1479751215.1,286046992.0,N,0.0,0.0
1479751216.0,286046992.0,N,0.0,0.0
1479751235.8,286046994.4,N,0.0,0.0
1479751255.7,286046995.9,N,0.0,0.0
1479751275.5,286046996.3,N,0.0,0.0
1479751295.3,286046993.6,N,0.0,0.0
1479751315.2,286046993.3,N,0.0,0.0
1479751335.0,286046995.7,N,0.0,0.0
1479751335.9,286046995.7,N,0.0,0.0
1479751355.8,286046995.9,N,0.0,0.0
1479751375.6,286046995.3,N,0.0,0.0
1479751395.4,286046997.5,N,0.0,0.0
1479751415.3,286046997.0,N,0.0,0.0
1479751435.1,286046995.7,N,0.0,0.0
1479751455.8,286046996.1,N,0.0,0.0
1479751475.7,286046996.3,N,0.0,0.0
1479751495.5,286046995.9,N,0.0,0.0
1479751515.4,286046995.9,N,0.0,0.0
1479751535.2,286046995.9,N,0.0,0.0
1479751555.0,286046995.1,N,0.0,0.0
1479751555.9,286046995.1,N,0.0,0.0
1479751575.8,286046997.2,N,0.0,0.0
1479751595.6,286046997.3,N,0.0,0.0
1479751615.5,286046997.4,N,0.0,0.0
1479751635.3,286046996.6,N,0.0,0.0
1479751655.1,286046996.9,N,0.0,0.0
1479751675.9,286046997.9,N,0.0,0.0
1479751695.7,286046996.8,N,0.0,0.0
1479751715.5,286046996.9,N,0.0,0.0
1479751735.4,286046999.2,N,0.0,0.0
1479751755.2,286046997.0,N,0.0,0.0
1479751775.1,286046997.5,N,0.0,0.0
1479751776.0,286046997.5,N,0.0,0.0
1479751795.8,286046995.7,N,0.0,0.0
1479751815.6,286046995.6,N,0.0,0.0
1479751835.5,286046995.7,N,0.0,0.0
1479751855.3,286046995.1,N,0.0,0.0
1479751875.1,286046996.3,N,0.0,0.0
1479751895.9,286046996.0,N,0.0,0.0
1479751915.7,286046994.0,N,0.0,0.0
1479751935.6,286046994.7,N,0.0,0.0
1479751955.4,286046993.9,N,0.0,0.0
1479751975.2,286046994.1,N,0.0,0.0
1479751995.1,286046994.1,N,0.0,0.0
1479751996.0,286046994.1,N,0.0,0.0
1479752015.8,286046994.5,N,0.0,0.0
1479752035.6,286046996.4,N,0.0,0.0
1479752055.5,286046995.8,N,0.0,0.0
1479752075.3,286046993.7,N,0.0,0.0
1479752095.2,286046996.1,N,0.0,0.0
1479752115.9,286046995.2,N,0.0,0.0
1479752135.7,286046995.1,N,0.0,0.0
1479752155.6,286046995.7,N,0.0,0.0
1479752175.4,286046995.5,N,0.0,0.0
1479752195.2,286046995.8,N,0.0,0.0
1479752215.1,286046995.3,N,0.0,0.0
1479752216.0,286046995.3,N,0.0,0.0
1479752235.8,286046995.5,N,0.0,0.0
1479752255.7,286046995.7,N,0.0,0.0
1479752275.5,286046997.6,N,0.0,0.0
1479752295.3,286046996.8,N,0.0,0.0
1479752315.2,286046997.5,N,0.0,0.0
1479752335.0,286046997.5,N,0.0,0.0
1479752335.9,286046997.5,N,0.0,0.0
1479752355.8,286046997.7,N,0.0,0.0
1479752375.6,286046999.1,N,0.0,0.0
1479752395.4,286046998.6,N,0.0,0.0
1479752415.3,286047000.7,N,0.0,0.0
1479752435.1,286047002.8,N,0.0,0.0
1479752455.8,286047002.1,N,0.0,0.0
1479752475.7,286047000.0,N,0.0,0.0
1479752495.5,286047000.2,N,0.0,0.0
1479752515.4,286047002.8,N,0.0,0.0
1479752535.2,286046999.8,N,0.0,0.0
1479752555.0,286047000.4,N,0.0,0.0
1479752555.9,286047000.4,N,0.0,0.0
1479752575.8,286047000.7,N,0.0,0.0
1479752595.6,286047000.7,N,0.0,0.0
1479752615.5,286047000.6,N,0.0,0.0
1479752635.3,286047001.1,N,0.0,0.0
1479752655.1,286047000.4,N,0.0,0.0
1479752675.9,286047001.6,N,0.0,0.0
1479752695.7,286047001.8,N,0.0,0.0
1479752715.5,286047003.4,N,0.0,0.0
1479752735.4,286047004.1,N,0.0,0.0
1479752755.2,286047004.2,N,0.0,0.0
1479752775.1,286047004.0,N,0.0,0.0
1479752776.0,286047004.0,N,0.0,0.0
1479752795.8,286047004.3,N,0.0,0.0
1479752815.6,286047004.3,N,0.0,0.0
1479752835.5,286047001.4,N,0.0,0.0
1479752855.3,286047005.5,N,0.0,0.0
1479752875.1,286047003.5,N,0.0,0.0
1479752895.9,286047004.3,N,0.0,0.0
1479752915.7,286047003.8,N,0.0,0.0
1479752935.6,286047002.9,N,0.0,0.0
1479752955.4,286047004.8,N,0.0,0.0
1479752975.2,286047005.9,N,0.0,0.0
1479752995.1,286047003.8,N,0.0,0.0
1479752996.0,286047003.8,N,0.0,0.0
1479753015.8,286047003.0,N,0.0,0.0
1479753035.6,286047004.0,N,0.0,0.0
1479753055.5,286047004.2,N,0.0,0.0
1479753075.3,286047003.5,N,0.0,0.0
1479753095.2,286047003.6,N,0.0,0.0
1479753115.9,286047003.2,N,0.0,0.0
1479753135.7,286047003.5,N,0.0,0.0
1479753155.6,286047003.7,N,0.0,0.0
1479753175.4,286047003.3,N,0.0,0.0
1479753195.2,286047003.7,N,0.0,0.0
1479753215.1,286047003.2,N,0.0,0.0
1479753216.0,286047003.2,N,0.0,0.0
1479753235.8,286047005.8,N,0.0,0.0
1479753255.7,286047004.8,N,0.0,0.0
1479753275.5,286047005.2,N,0.0,0.0
1479753295.3,286047005.7,N,0.0,0.0
1479753315.2,286047005.1,N,0.0,0.0
1479753335.0,286047004.7,N,0.0,0.0
1479753335.9,286047004.7,N,0.0,0.0
1479753355.7,286047006.0,N,0.0,0.0
1479753375.6,286047005.7,N,0.0,0.0
1479753395.4,286047004.6,N,0.0,0.0
1479753415.3,286047006.7,N,0.0,0.0
1479753435.1,286047007.5,N,0.0,0.0
1479753436.0,286047007.5,N,0.0,0.0
1479753455.8,286047006.4,N,0.0,0.0
1479753475.7,286047006.4,N,0.0,0.0
1479753495.5,286047006.8,N,0.0,0.0
1479753515.4,286047006.4,N,0.0,0.0
1479753535.2,286047008.8,N,0.0,0.0
1479753555.0,286047009.0,N,0.0,0.0
1479753555.9,286047009.0,N,0.0,0.0
1479753575.8,286047007.7,N,0.0,0.0
1479753595.6,286047006.1,N,0.0,0.0
1479753615.4,286047007.8,N,0.0,0.0
1479753635.3,286047008.2,N,0.0,0.0
1479753655.1,286047009.6,N,0.0,0.0
1479753675.9,286047009.4,N,0.0,0.0
1479753695.7,286047009.8,N,0.0,0.0
1479753715.5,286047009.7,N,0.0,0.0
1479753735.4,286047011.0,N,0.0,0.0
1479753755.2,286047011.0,N,0.0,0.0
1479753775.0,286047012.7,N,0.0,0.0
1479753775.9,286047012.7,N,0.0,0.0
1479753795.8,286047015.1,N,0.0,0.0
1479753815.6,286047016.8,N,0.0,0.0
1479753835.5,286047014.8,N,0.0,0.0
1479753855.3,286047014.5,N,0.0,0.0
1479753875.1,286047017.0,N,0.0,0.0
1479753895.9,286047017.0,N,0.0,0.0
1479753915.7,286047014.5,N,0.0,0.0
1479753935.5,286047014.2,N,0.0,0.0
1479753955.4,286047016.8,N,0.0,0.0
1479753975.2,286047018.6,N,0.0,0.0
1479753995.1,286047015.9,N,0.0,0.0
1479753996.0,286047015.9,N,0.0,0.0
1479754015.8,286047018.7,N,0.0,0.0
1479754035.6,286047017.1,N,0.0,0.0
1479754055.5,286047015.9,N,0.0,0.0
1479754075.3,286047016.3,N,0.0,0.0
1479754095.1,286047016.7,N,0.0,0.0
1479754115.9,286047016.7,N,0.0,0.0
1479754135.7,286047016.2,N,0.0,0.0
1479754155.6,286047014.1,N,0.0,0.0
1479754175.4,286047018.8,N,0.0,0.0
1479754195.2,286047016.1,N,0.0,0.0
1479754215.1,286047018.7,N,0.0,0.0
1479754216.0,286047018.7,N,0.0,0.0
1479754235.8,286047015.7,N,0.0,0.0
1479754255.6,286047018.7,N,0.0,0.0
1479754275.5,286047020.3,N,0.0,0.0
1479754295.3,286047019.6,N,0.0,0.0
1479754315.2,286047021.6,N,0.0,0.0
1479754335.9,286047020.9,N,0.0,0.0
1479754355.7,286047023.6,N,0.0,0.0
1479754375.6,286047023.2,N,0.0,0.0
1479754395.4,286047021.1,N,0.0,0.0
1479754415.2,286047021.0,N,0.0,0.0
1479754435.1,286047023.4,N,0.0,0.0
1479754436.0,286047023.4,N,0.0,0.0
1479754455.8,286047023.1,N,0.0,0.0
1479754475.7,286047022.7,N,0.0,0.0
1479754495.5,286047022.5,N,0.0,0.0
1479754515.3,286047022.6,N,0.0,0.0
1479754535.2,286047024.6,N,0.0,0.0
1479754555.0,286047024.8,N,0.0,0.0
1479754555.9,286047024.8,N,0.0,0.0
1479754575.7,286047024.0,N,0.0,0.0
1479754595.6,286047026.1,N,0.0,0.0
1479754615.4,286047027.6,N,0.0,0.0
1479754635.3,286047025.7,N,0.0,0.0
1479754655.1,286047028.2,N,0.0,0.0
1479754656.0,286047028.2,N,0.0,0.0
1479754675.8,286047025.4,N,0.0,0.0
1479754695.7,286047027.6,N,0.0,0.0
1479754715.5,286047025.4,N,0.0,0.0
1479754735.4,286047027.1,N,0.0,0.0
1479754755.2,286047027.9,N,0.0,0.0
1479754775.0,286047027.0,N,0.0,0.0
1479754775.9,286047027.0,N,0.0,0.0
1479754795.8,286047029.7,N,0.0,0.0
